Homer, AK

9:48 PM AKDT on May 22, 2018 (GMT -0800)
Homer

Weather History for PAHO - February, 2012

Change the Weather History Date:

Friday, February 24, 2012

  Actual Average Record
Temperature  
Mean Temperature 18 °F -  
Max Temperature 24 °F 34 °F 47 °F (1943)
Min Temperature 12 °F 19 °F -6 °F (1971)
Degree Days  
Heating Degree Days 47    
Moisture  
Dew Point 14 °F    
Average Humidity 79    
Maximum Humidity 88    
Minimum Humidity 68    
Precipitation  
Precipitation 0.00 in - - ()
Sea Level Pressure  
Sea Level Pressure 30.25 in    
Wind  
Wind Speed 4 mph (NNE)    
Max Wind Speed 14 mph    
Max Gust Speed -    
Visibility 10 miles    
Events Snow    
Averages and records for this station are not official NWS values.
T = Trace of Precipitation, MM = Missing Value Source: NWS Daily Summary

Daily Weather History Graph

Daily Weather History Graph

Search for Another Location

Airport or City:

Astronomy

Feb. 24, 2012 Rise Set
Actual Time 8:18 AM AKST 6:20 PM AKST
Civil Twilight 7:36 AM AKST 7:02 PM AKST
Nautical Twilight 6:49 AM AKST 7:50 PM AKST
Astronomical Twilight 6:01 AM AKST 8:38 PM AKST
Moon 8:21 AM AKST (2/24) 10:40 PM AKST (2/24)
Length of Visible Light 11h 26m
Length of Day
10h 02m
Waxing Crescent, 8% of the Moon is Illuminated
Feb 24
Waxing Crescent
Feb 29
First Quarter
Mar 8
Full
Mar 14
Last Quarter
Mar 22
New

Hourly Weather History & Observations

Time (AKST) Temp. Windchill Dew Point Humidity Pressure Visibility Wind Dir Wind Speed Gust Speed Precip Events Conditions
12:53 AM 23.0 °F 17.0 °F 15.1 °F 72% 30.24 in 10.0 mi WSW 4.6 mph - N/A   Clear
1:53 AM 15.1 °F - 10.9 °F 84% 30.25 in 10.0 mi Calm Calm - N/A   Clear
2:27 AM 17.6 °F 12.3 °F 14.0 °F 86% 30.25 in 10.0 mi North 3.5 mph - N/A   Mostly Cloudy
2:41 AM 15.8 °F 10.2 °F 12.2 °F 86% 30.26 in 10.0 mi North 3.5 mph - N/A   Scattered Clouds
3:45 AM 17.6 °F 8.2 °F 14.0 °F 86% 30.25 in 10.0 mi North 6.9 mph - N/A   Mostly Cloudy
3:53 AM 19.9 °F 10.1 °F 16.0 °F 85% 30.26 in 10.0 mi North 8.1 mph - N/A   Mostly Cloudy
4:53 AM 19.9 °F - 15.1 °F 81% 30.26 in 8.0 mi Calm Calm - N/A   Overcast
5:53 AM 21.9 °F 11.0 °F 16.0 °F 78% 30.27 in 10.0 mi WSW 10.4 mph - N/A   Overcast
6:53 AM 21.9 °F 9.2 °F 16.0 °F 78% 30.27 in 10.0 mi SW 13.8 mph - N/A   Overcast
7:53 AM 21.0 °F 11.4 °F 16.0 °F 81% 30.27 in 10.0 mi SW 8.1 mph - N/A   Overcast
8:53 AM 21.0 °F 11.4 °F 15.1 °F 78% 30.27 in 10.0 mi SW 8.1 mph - N/A   Overcast
9:53 AM 21.9 °F - 16.0 °F 78% 30.27 in 10.0 mi Calm Calm - N/A   Overcast
10:53 AM 23.0 °F 17.0 °F 15.1 °F 72% 30.27 in 10.0 mi NE 4.6 mph - N/A   Overcast
11:53 AM 23.0 °F 17.0 °F 15.1 °F 72% 30.27 in 10.0 mi ENE 4.6 mph - N/A   Overcast
12:53 PM 23.0 °F - 15.1 °F 72% 30.27 in 10.0 mi Calm Calm - N/A   Overcast
1:53 PM 23.0 °F - 15.1 °F 72% 30.27 in 10.0 mi Calm Calm - N/A   Overcast
2:53 PM 23.0 °F 17.0 °F 18.0 °F 81% 30.27 in 10.0 mi SSW 4.6 mph - N/A   Overcast
3:53 PM 24.1 °F - 18.0 °F 77% 30.25 in 10.0 mi Calm Calm - 0.00 in Snow Light Snow
4:53 PM 24.1 °F 19.7 °F 17.1 °F 75% 30.24 in 10.0 mi East 3.5 mph - 0.00 in   Overcast
5:53 PM 23.0 °F 14.7 °F 16.0 °F 74% 30.22 in 10.0 mi East 6.9 mph - N/A   Overcast
6:53 PM 23.0 °F 14.7 °F 14.0 °F 68% 30.22 in 10.0 mi ENE 6.9 mph - N/A   Overcast
8:53 PM 16.0 °F - 10.0 °F 77% 30.22 in 10.0 mi Calm Calm - N/A   Scattered Clouds
9:53 PM 15.1 °F 9.4 °F 10.0 °F 80% 30.21 in 10.0 mi NE 3.5 mph - N/A   Clear
10:53 PM 12.9 °F 5.2 °F 10.0 °F 88% 30.22 in 10.0 mi NE 4.6 mph - N/A   Clear
11:53 PM 12.0 °F 2.7 °F 8.1 °F 84% 30.22 in 10.0 mi NE 5.8 mph - N/A   Clear